COSMOS 2565

导读

COSMOS 2565(宇宙-2565)是俄罗斯(CIS)于2022年11月30日由联盟2.1b运载火箭从普列谢茨克航天发射场发射的军用卫星,属于Liana计划下的Lotos-S电子信号侦察卫星,用于接替旧型号卫星,承担无线电信号拦截、军事情报收集任务。入轨时处于转移轨道,远地点约900km,近地点约239km,后续计划变轨至工作轨道运行。

基本信息
目录编号:
54381
目录名称:
COSMOS 2565
国际标识:
2022-163A
轨道中心:
EARTH
卫星名称:
COSMOS 2565
卫星全名:
--
卫星状态:
在轨 (已飞行1322 天)
发射日期:
2022-11-30 UTC
国别 :
俄罗斯(独联体) (CIS)
星等 :
--
轨道信息
数据来源 国际轨道数据 AOE轨道数据
星历时间 2026-07-14T04:41:33+0800
11小时前
查看轨道信息
2026-07-12T18:00:00+0800
1天前
查看轨道信息
半长轴 7283.454km 7283.455km
偏心率 0.000669 0.0006744
轨道倾角 67.149° 67.150°
近地点辐角 271.748° 272.565°
升交点赤经 42.423° 45.937°
平近点角 88.284° 20.439°
近地点 900.444km 900.406km
远地点 910.19km 910.23km
周期 103.102分钟 103.102分钟
每日圈数 13.966795 13.966792
详细信息
使用方式:
暂无
2D轨道图
3D轨道图
轨道高度分析图
轨道倾角分析图
轨道综合分析图
查看轨道综合分析图